Location: Newark
(28.4500°N, 16.2500°W)
Time: 23:27:12
(UTC+00:00)

JUGNU - Pass Details

Date: 29 October 2019
Orbit: 836 x 864 km, 20.0° (Epoch: 13 November)

Event Time Altitude Azimuth Distance (km) Brightness Sun altitude
Rises 21:12:39 0° 255° (WSW) 3,385 ? -37.9°
Reaches altitude 10° 21:15:23 10° 247° (WSW) 2,455 ? -38.5°
Enters shadow 21:17:24 20° 235° (SW) 1,841 ? -38.9°
